| time (UTC) | temp F | wind direction | speed MPH | gust MPH | rain 1hr in | rain 24hr in | rain mn in | humidity % | barometer mb |
| 20260507053004 | 50 | 0 | 0.0 | 0.0 | 0.00 | 0.00 | 0.00 | 72 | 1018.0 |
| 20260507051504 | 51 | 0 | 0.0 | 0.0 | 0.00 | 0.00 | 0.00 | 71 | 1017.8 |
| 20260507050005 | 52 | 0 | 0.0 | 0.0 | 0.00 | 0.00 | 0.00 | 69 | 1017.8 |
| 20260507044503 | 52 | 0 | 0.0 | 0.0 | 0.00 | 0.00 | 0.00 | 67 | 1017.8 |
| 20260507043218 | 53 | 0 | 0.0 | 0.0 | 0.00 | 0.00 | 0.00 | 66 | 1017.7 |
| 20260507041503 | 53 | 0 | 0.0 | 0.0 | 0.00 | 0.00 | 0.00 | 65 | 1017.7 |
| 20260507040003 | 54 | 0 | 0.0 | 0.0 | 0.00 | 0.00 | 0.00 | 64 | 1017.8 |
| 20260507034503 | 55 | 0 | 0.0 | 0.0 | 0.00 | 0.00 | 0.00 | 62 | 1017.6 |
| 20260507033003 | 55 | 0 | 0.0 | 1.0 | 0.00 | 0.00 | 0.00 | 62 | 1017.6 |
| 20260507031503 | 55 | 59 | 0.0 | 4.0 | 0.00 | 0.00 | 0.00 | 62 | 1017.4 |
| 20260507030003 | 56 | 59 | 1.0 | 4.0 | 0.00 | 0.00 | 0.00 | 61 | 1017.3 |
| 20260507024503 | 56 | 60 | 1.0 | 6.0 | 0.00 | 0.00 | 0.00 | 60 | 1017.1 |
| 20260507023004 | 57 | 61 | 1.0 | 5.0 | 0.00 | 0.00 | 0.00 | 59 | 1017.0 |
| 20260507021503 | 57 | 67 | 1.0 | 4.0 | 0.00 | 0.00 | 0.00 | 59 | 1016.9 |
| 20260507020218 | 58 | 67 | 0.0 | 2.0 | 0.00 | 0.00 | 0.00 | 58 | 1016.7 |
| 20260507014716 | 58 | 67 | 0.0 | 1.0 | 0.00 | 0.00 | 0.00 | 57 | 1016.6 |
| 20260507013003 | 59 | 67 | 0.0 | 3.0 | 0.00 | 0.00 | 0.00 | 55 | 1016.3 |
| 20260507011503 | 59 | 67 | 0.0 | 3.0 | 0.00 | 0.00 | 0.00 | 54 | 1016.1 |
| 20260507010217 | 60 | 68 | 1.0 | 5.0 | 0.00 | 0.00 | 0.00 | 53 | 1016.0 |
| 20260507004503 | 60 | 75 | 1.0 | 8.0 | 0.00 | 0.00 | 0.00 | 52 | 1015.9 |
| 20260507003004 | 61 | 70 | 1.0 | 6.0 | 0.00 | 0.00 | 0.00 | 51 | 1015.7 |
| 20260507001503 | 62 | 33 | 2.0 | 10.0 | 0.00 | 0.00 | 0.00 | 49 | 1015.6 |
| 20260507000004 | 63 | 39 | 1.0 | 5.0 | 0.00 | 0.00 | 0.00 | 48 | 1015.5 |
| 20260506234503 | 63 | 42 | 2.0 | 11.0 | 0.00 | 0.00 | 0.00 | 48 | 1015.6 |
| 20260506233219 | 63 | 46 | 2.0 | 9.0 | 0.00 | 0.00 | 0.00 | 49 | 1015.4 |
| 20260506231503 | 64 | 18 | 1.0 | 10.0 | 0.00 | 0.00 | 0.00 | 48 | 1015.3 |
| 20260506230003 | 66 | 50 | 2.0 | 8.0 | 0.00 | 0.00 | 0.00 | 47 | 1015.1 |
| 20260506224503 | 64 | 71 | 2.0 | 10.0 | 0.00 | 0.00 | 0.00 | 50 | 1015.1 |
| 20260506223003 | 64 | 59 | 2.0 | 9.0 | 0.00 | 0.00 | 0.00 | 50 | 1014.9 |
| 20260506221504 | 64 | 57 | 3.0 | 11.0 | 0.00 | 0.00 | 0.00 | 51 | 1014.8 |
| 20260506220003 | 64 | 17 | 2.0 | 10.0 | 0.00 | 0.00 | 0.00 | 49 | 1014.7 |
| 20260506214504 | 64 | 6 | 4.0 | 10.0 | 0.00 | 0.00 | 0.00 | 50 | 1014.6 |
| 20260506213003 | 65 | 28 | 3.0 | 10.0 | 0.00 | 0.00 | 0.00 | 50 | 1014.7 |
| 20260506211503 | 64 | 25 | 4.0 | 13.0 | 0.00 | 0.00 | 0.00 | 51 | 1014.8 |
| 20260506210003 | 64 | 53 | 3.0 | 10.0 | 0.00 | 0.00 | 0.00 | 51 | 1014.7 |
| 20260506204503 | 64 | 31 | 3.0 | 9.0 | 0.00 | 0.00 | 0.00 | 53 | 1015.0 |
| 20260506203003 | 64 | 21 | 3.0 | 10.0 | 0.00 | 0.00 | 0.00 | 56 | 1015.4 |
| 20260506201503 | 62 | 11 | 3.0 | 11.0 | 0.00 | 0.00 | 0.00 | 55 | 1015.5 |
| 20260506200217 | 64 | 47 | 3.0 | 10.0 | 0.00 | 0.00 | 0.00 | 53 | 1015.7 |
| 20260506194503 | 65 | 25 | 2.0 | 9.0 | 0.00 | 0.00 | 0.00 | 52 | 1015.5 |
| 20260506193003 | 64 | 20 | 3.0 | 11.0 | 0.00 | 0.00 | 0.00 | 54 | 1015.6 |
| 20260506191503 | 64 | 28 | 3.0 | 11.0 | 0.00 | 0.00 | 0.00 | 54 | 1015.8 |
| 20260506190003 | 63 | 37 | 2.0 | 9.0 | 0.00 | 0.00 | 0.00 | 55 | 1016.1 |
| 20260506184504 | 63 | 30 | 2.0 | 10.0 | 0.00 | 0.00 | 0.00 | 54 | 1016.3 |
| 20260506183004 | 63 | 26 | 2.0 | 9.0 | 0.00 | 0.00 | 0.00 | 54 | 1016.5 |
| 20260506181503 | 63 | 79 | 2.0 | 10.0 | 0.00 | 0.00 | 0.00 | 53 | 1016.5 |
| 20260506180004 | 63 | 57 | 4.0 | 10.0 | 0.00 | 0.00 | 0.00 | 56 | 1016.6 |
| 20260506174503 | 61 | 40 | 3.0 | 11.0 | 0.00 | 0.00 | 0.00 | 57 | 1016.7 |
| 20260506173003 | 63 | 43 | 3.0 | 12.0 | 0.00 | 0.00 | 0.00 | 57 | 1017.0 |
| 20260506171504 | 63 | 52 | 2.0 | 9.0 | 0.00 | 0.00 | 0.00 | 58 | 1017.5 |
| 20260506170004 | 62 | 73 | 2.0 | 8.0 | 0.00 | 0.00 | 0.00 | 59 | 1017.9 |
| 20260506164503 | 60 | 72 | 3.0 | 9.0 | 0.00 | 0.00 | 0.00 | 62 | 1018.0 |
| 20260506163003 | 58 | 14 | 3.0 | 11.0 | 0.00 | 0.00 | 0.00 | 60 | 1017.7 |
| 20260506161503 | 57 | 10 | 4.0 | 12.0 | 0.00 | 0.00 | 0.00 | 62 | 1017.6 |
| 20260506160003 | 59 | 33 | 3.0 | 11.0 | 0.00 | 0.00 | 0.00 | 60 | 1017.4 |
| 20260506154503 | 59 | 28 | 2.0 | 10.0 | 0.00 | 0.00 | 0.00 | 62 | 1017.0 |
| 20260506153218 | 58 | 42 | 3.0 | 11.0 | 0.00 | 0.00 | 0.00 | 63 | 1016.7 |
| 20260506151503 | 56 | 87 | 3.0 | 9.0 | 0.00 | 0.00 | 0.00 | 64 | 1016.1 |
| 20260506150004 | 55 | 78 | 4.0 | 14.0 | 0.00 | 0.00 | 0.00 | 64 | 1016.1 |
| 20260506144503 | 54 | 68 | 3.0 | 12.0 | 0.00 | 0.00 | 0.00 | 66 | 1016.1 |
| 20260506143004 | 53 | 56 | 3.0 | 12.0 | 0.00 | 0.00 | 0.00 | 69 | 1016.2 |
| 20260506141503 | 52 | 56 | 3.0 | 12.0 | 0.00 | 0.00 | 0.00 | 71 | 1016.1 |
| 20260506140003 | 51 | 19 | 3.0 | 13.0 | 0.00 | 0.00 | 0.00 | 74 | 1016.3 |
| 20260506134503 | 51 | 28 | 5.0 | 13.0 | 0.00 | 0.00 | 0.00 | 74 | 1016.3 |
| 20260506133003 | 50 | 39 | 3.0 | 14.0 | 0.00 | 0.00 | 0.00 | 78 | 1016.4 |
| 20260506131503 | 50 | 39 | 3.0 | 11.0 | 0.00 | 0.00 | 0.00 | 78 | 1016.2 |
| 20260506130219 | 50 | 33 | 2.0 | 13.0 | 0.00 | 0.00 | 0.00 | 79 | 1016.1 |
| 20260506124503 | 49 | 30 | 2.0 | 11.0 | 0.00 | 0.00 | 0.00 | 81 | 1016.1 |
| 20260506123004 | 49 | 17 | 5.0 | 14.0 | 0.00 | 0.00 | 0.00 | 82 | 1016.1 |
| 20260506121503 | 49 | 26 | 5.0 | 13.0 | 0.00 | 0.00 | 0.00 | 81 | 1015.7 |
| 20260506120004 | 48 | 2 | 3.0 | 12.0 | 0.00 | 0.00 | 0.00 | 84 | 1015.3 |
| 20260506114717 | 49 | 13 | 3.0 | 10.0 | 0.00 | 0.00 | 0.00 | 84 | 1015.3 |
| 20260506113003 | 49 | 12 | 3.0 | 11.0 | 0.00 | 0.00 | 0.00 | 82 | 1015.4 |
| 20260506111717 | 49 | 16 | 3.0 | 12.0 | 0.00 | 0.00 | 0.00 | 81 | 1015.3 |
| 20260506110218 | 49 | 6 | 3.0 | 9.0 | 0.00 | 0.00 | 0.00 | 80 | 1015.1 |
| 20260506104717 | 50 | 16 | 4.0 | 12.0 | 0.00 | 0.00 | 0.00 | 77 | 1014.8 |
| 20260506103003 | 50 | 17 | 2.0 | 10.0 | 0.00 | 0.00 | 0.00 | 77 | 1014.4 |
| 20260506101503 | 50 | 2 | 3.0 | 14.0 | 0.00 | 0.00 | 0.00 | 77 | 1014.7 |
| 20260506100003 | 50 | 3 | 3.0 | 8.0 | 0.00 | 0.00 | 0.00 | 78 | 1014.3 |
| 20260506094503 | 50 | 11 | 3.0 | 9.0 | 0.00 | 0.00 | 0.00 | 78 | 1014.3 |
| 20260506093003 | 50 | 11 | 2.0 | 9.0 | 0.00 | 0.00 | 0.00 | 77 | 1013.5 |
| 20260506091504 | 50 | 15 | 4.0 | 12.0 | 0.00 | 0.00 | 0.00 | 77 | 1013.2 |
| 20260506090004 | 50 | 6 | 4.0 | 12.0 | 0.00 | 0.00 | 0.00 | 77 | 1012.6 |
| 20260506084718 | 50 | 19 | 4.0 | 11.0 | 0.00 | 0.00 | 0.00 | 77 | 1012.4 |
| 20260506083003 | 50 | 14 | 2.0 | 10.0 | 0.00 | 0.00 | 0.00 | 77 | 1012.3 |
| 20260506081718 | 50 | 12 | 3.0 | 9.0 | 0.00 | 0.00 | 0.00 | 76 | 1012.2 |
| 20260506073003 | 50 | 59 | 2.0 | 10.0 | 0.00 | 0.00 | 0.00 | 75 | 1011.9 |
| 20260506071718 | 50 | 20 | 2.0 | 11.0 | 0.00 | 0.00 | 0.00 | 75 | 1012.3 |
| 20260506070218 | 51 | 25 | 3.0 | 10.0 | 0.00 | 0.00 | 0.00 | 74 | 1012.2 |
| 20260506061503 | 50 | 36 | 3.0 | 12.0 | 0.00 | 0.00 | 0.00 | 74 | 1012.0 |